Location: Go?cza
(50.3372°N, 19.9313°E)
Time: 00:56:21
(UTC+00:00)

Cosmos 1745 Rocket - Pass Details

Date: 23 May 2024
Orbit: 953 x 996 km, 83.0° (Epoch: 18 June)

Event Time Altitude Azimuth Distance (km) Brightness Sun altitude
Exits shadow 00:48:38 18° 205° (SSW) 2,181 5.2 -13.3°
Maximum altitude 00:53:19 63° 283° (WNW) 1,084 4.2 -12.9°
Drops below altitude 10° 00:59:35 10° 5° (N) 2,753 7.4 -12.4°
Sets 01:02:10 0° 9° (N) 3,711 8.3 -12.1°
